Flag for China Weather past 2 weeks in Suzhou, Jiangsu, China

70 °F


Feels Like: 70 °F
Forecast: 53 / 70 °F
Wind: 13 mph from Northwest

Location: Shanghai Hongqiao Airport

Current Time: Oct 10, 2015 at 7:00:50 PM

Latest Report: Oct 10, 2015 at 6:30 PM

Visibility: 10 mi

Pressure: 29.98 "Hg

Humidity: 53%

Dew point: 52 °F

Location of SuzhouLocation

Historic Weather in Suzhou — Graph


Suzhou temperature yesterday

Maximum temperature yesterday: 77 °F (at 2:00 PM)
Minimum temperature yesterday: 63 °F (at 4:00 AM)
Average temperature yesterday: 68 °F

Past Weeks' High & Low Weather Summary

High86 °F (Sep 30, 2:30 PM)100% (Sep 29, 5:00 PM)30.24 "Hg (Sep 29, 5:00 PM)
Low59 °F (Oct 2, 5:00 AM)32% (Oct 10, 2:00 PM)29.74 "Hg (Oct 1, 4:00 AM)
Average72 °F75%30.00 "Hg
* Reported Sep 25 6:00 PM — Oct 10 6:00 PM, Suzhou, Weather by CustomWeather, © 2015

Note: Actual official high and low records may vary slightly from our data, if they occured in-between our weather recording intervals... More about our weather records


Suzhou weather history for previous 24 hours

Time TempWeatherWind HumidityBarometerVisibility
6:00 PM
Sat, Oct 10
72 °FClear.10 mph50%29.95 "Hg10 mi
5:30 PM72 °FClear.10 mph47%29.95 "Hg10 mi
5:00 PM72 °FPassing clouds.10 mph47%29.95 "HgN/A
4:30 PM73 °FPassing clouds.13 mph41%29.92 "HgN/A
4:00 PM75 °FPassing clouds.13 mph39%29.92 "HgN/A
3:30 PM75 °FPassing clouds.13 mph39%29.92 "HgN/A
3:00 PM75 °FPassing clouds.15 mph34%29.89 "HgN/A
2:30 PM75 °FSunny.15 mph39%29.89 "Hg10 mi
2:00 PM77 °FPassing clouds.15 mph32%29.89 "HgN/A
1:30 PM77 °FPassing clouds.10 mph36%29.92 "HgN/A
1:00 PM75 °FPassing clouds.10 mph39%29.92 "HgN/A
12:30 PM75 °FSunny.15 mph39%29.92 "Hg10 mi
12:00 PM75 °FPassing clouds.13 mph36%29.92 "HgN/A
11:30 AM75 °FPassing clouds.10 mph36%29.95 "HgN/A
11:00 AM75 °FPassing clouds.8 mph47%29.95 "HgN/A
10:30 AM75 °FSunny.13 mph44%29.98 "Hg10 mi
10:00 AM73 °FPassing clouds.10 mph50%29.98 "HgN/A
9:30 AM72 °FPassing clouds.8 mph50%29.98 "HgN/A
9:00 AM70 °FPassing clouds.6 mph53%29.98 "HgN/A
8:30 AM68 °FPassing clouds.6 mph60%29.98 "HgN/A
8:00 AM66 °FPassing clouds.6 mph64%29.98 "HgN/A
7:30 AM66 °FClear.No wind68%29.98 "Hg4 mi
7:00 AM63 °FClear.1 mph77%29.95 "Hg4 mi
6:30 AM61 °FClear.3 mph83%29.95 "Hg4 mi
6:00 AM59 °FClear.3 mph82%29.95 "Hg4 mi
5:00 AM61 °FClear.3 mph72%29.95 "Hg4 mi
4:30 AM61 °FClear.6 mph72%29.95 "Hg4 mi
4:00 AM63 °FClear.3 mph73%29.95 "Hg4 mi
3:30 AM63 °FClear.3 mph77%29.95 "Hg4 mi
3:00 AM63 °FClear.3 mph77%29.95 "Hg4 mi
2:30 AM63 °FClear.3 mph77%29.95 "Hg4 mi
2:00 AM63 °FClear.3 mph83%29.95 "Hg4 mi
1:30 AM63 °FFog.3 mph88%29.95 "Hg3 mi
1:00 AM63 °FFog.3 mph88%29.95 "Hg3 mi
12:30 AM63 °FFog.3 mph88%29.95 "Hg3 mi
12:00 AM61 °FFog.3 mph94%29.98 "Hg3 mi
11:30 PM
Fri, Oct 9
63 °FFog.3 mph88%29.98 "Hg3 mi
10:30 PM64 °FClear.3 mph88%29.98 "Hg4 mi
10:00 PM64 °FClear.3 mph88%29.98 "Hg4 mi
9:30 PM66 °FClear.3 mph78%29.98 "Hg5 mi
9:00 PM66 °FPassing clouds.3 mph78%29.98 "HgN/A
8:30 PM68 °FPassing clouds.6 mph73%29.98 "HgN/A
8:00 PM68 °FClear.3 mph73%29.98 "Hg10 mi
7:30 PM68 °FPassing clouds.3 mph73%29.95 "HgN/A
7:00 PM68 °FPassing clouds.3 mph73%29.95 "HgN/A
Weather by CustomWeather, © 2015

See weather overviewHow to use our weather pages